Location: Newark
(25.0000°N, 73.5000°E)
Time: 12:24:49
(UTC+00:00)

NOAA 15 - Pass Details

Date: 27 February 2020
Orbit: 797 x 813 km, 98.7° (Epoch: 05 April)

Event Time Altitude Azimuth Distance (km) Brightness Sun altitude
Rises 13:38:53 0° 160° (SSE) 3,316 7.6 -8.1°
Reaches altitude 10° 13:41:13 10° 157° (SSE) 2,389 6.9 -8.6°
Maximum altitude 13:46:27 67° 76° (ENE) 879 4.6 -9.8°
Drops below altitude 10° 13:51:44 10° 354° (N) 2,402 7.1 -11.0°
Sets 13:54:05 0° 352° (N) 3,335 7.9 -11.5°
